{"data":{"norad_id":57229,"epoch":"2026-09-20T08:29:07.362816Z","epoch_age_seconds":136876,"freshness":"FRESH","line1":"1 57229U 23094M   26263.35355744 -.00000399  00000+0 -49622-5 0  9998","line2":"2 57229  43.0055  11.6337 0001699 274.2945  85.7712 15.27573696176884","mean_motion":15.27573696,"eccentricity":0.0001699,"inclination_deg":43.0055,"raan_deg":11.6337,"arg_perigee_deg":274.2945,"mean_anomaly_deg":85.7712,"bstar":-4.9622e-6,"rev_number":17688,"period_min":94.267137734218,"perigee_km":481.90225382359,"apogee_km":484.23369127326,"semimajor_km":6861.2049725484,"source":"CELESTRAK","updated_at":"2026-09-21T09:00:33.585931Z"}}